Stations météo

réclame
Mon MeteoGroup
Wick Airport (AWS), Grande-Bretagne (3075): Température de l'air & dewpoint: 11.10.2018 19:00:00 - 17.10.2018 19:00:00 (BST)Wick Airport (AWS), Grande-Bretagne (3075): Température de l'air -20cm: 11.10.2018 19:00:00 - 17.10.2018 19:00:00 (BST)Wick Airport (AWS), Grande-Bretagne (3075): Vitesse du vent & gusts: 11.10.2018 19:00:00 - 17.10.2018 19:00:00 (BST)Wick Airport (AWS), Grande-Bretagne (3075): Direction du vent: 11.10.2018 19:00:00 - 17.10.2018 19:00:00 (BST)Wick Airport (AWS), Grande-Bretagne (3075): reduced air pressure: 11.10.2018 19:00:00 - 17.10.2018 19:00:00 (BST)Wick Airport (AWS), Grande-Bretagne (3075): visibility: 11.10.2018 19:00:00 - 17.10.2018 19:00:00 (BST)Wick Airport (AWS), Grande-Bretagne (3075): Quantités de précipitations: 11.10.2018 19:00:00 - 17.10.2018 19:00:00 (BST)
Date & Time tt [°C] td [°C] tt -20cm [°C] ff [km/h] ff [knt] fx [km/h] fx [knt] dd ppp [hPa] vv [km] rr [mm]
17.10.2018 19:00:00 8,8 4,4 - 11 6 - - SSW 1022,6 30 0,0
17.10.2018 18:00:00 9,1 5,2 - 16 9 - - WSW 1018,4 40 0,0
17.10.2018 17:00:00 10,3 4,6 - 24 13 - - WSW 1017,2 30 0,0
17.10.2018 16:00:00 10,9 4,9 - 24 13 - - WSW 1016,6 30 0,0
17.10.2018 15:00:00 11,7 4,8 - 26 14 - - W 1015,7 35 0,0
17.10.2018 14:00:00 11,4 4,8 - 29 16 46 25 SW 1015,1 24 0,0
17.10.2018 13:00:00 11,2 5,1 - 35 19 46 25 SW 1014,5 23 0,0
17.10.2018 12:00:00 11,1 5,4 - 29 16 - - SW 1013,8 30 0,0
17.10.2018 11:00:00 10,2 5,5 - 21 11 - - SW 1013,2 29 0,0
17.10.2018 10:00:00 8,9 4,8 9,7 29 16 - - SSW 1012,3 28 0,0
17.10.2018 09:00:00 8,0 4,4 - 21 11 - - SSW 1011,3 24 0,0
17.10.2018 08:00:00 7,1 4,3 - 18 10 - - SSW 1010,3 27 0,0
17.10.2018 07:00:00 7,7 4,5 - 13 7 - - SSW 1009,3 40 0,0
17.10.2018 06:00:00 8,5 4,7 - 15 8 - - SSW 1008,6 30 0,0
17.10.2018 05:00:00 8,7 5,7 - 18 10 - - SW 1007,8 35 0,0
17.10.2018 04:00:00 8,7 6,9 - 11 6 - - WSW 1007,4 45 0,0
17.10.2018 03:00:00 9,8 6,8 - 15 8 - - SSW 1006,4 45 0,0
17.10.2018 02:00:00 8,7 6,7 - 5 3 - - WSW 1006,1 24 0,0
17.10.2018 01:00:00 11,1 9,2 - 15 8 - - SSW 1005,3 28 0,0
17.10.2018 00:00:00 10,4 8,9 - 15 8 - - S 1004,7 19 0,0
16.10.2018 23:00:00 11,3 9,0 - 18 10 - - S 1004,4 24 0,0
16.10.2018 22:00:00 11,5 9,1 - 21 11 - - S 1004,1 18 0,0
16.10.2018 21:00:00 11,9 9,2 - 26 14 - - S 1003,6 19 0,0
16.10.2018 20:00:00 11,9 9,1 - 29 16 48 26 S - 16 0,0
16.10.2018 19:00:00 11,9 8,7 - 28 15 - - SSW - 25 0,0
16.10.2018 18:00:00 12,1 9,8 - 24 13 - - S - 21 0,0
16.10.2018 17:00:00 12,8 9,5 - 28 15 - - S - 21 0,0
16.10.2018 16:00:00 - - - - - - - - - - -
16.10.2018 15:00:00 - - - 28 15 - - SE - - 0,0
16.10.2018 14:00:00 - - - 28 15 - - SSE - 26 0,0
16.10.2018 13:00:00 - - - 34 18 57 31 SSE - 40 0,0
16.10.2018 12:00:00 10,9 8,2 - 31 17 54 29 SSE 1003,6 21 0,0
16.10.2018 11:00:00 10,3 7,9 - 28 15 57 31 SSE 1004,5 15 0,0
16.10.2018 10:00:00 10,1 6,9 9,7 37 20 65 35 SSE 1005,1 23 0,0
16.10.2018 09:00:00 10,0 6,1 - 28 15 54 29 S 1006,5 35 0,0
16.10.2018 08:00:00 9,9 6,3 - 37 20 55 30 SSE 1006,0 30 0,0
16.10.2018 07:00:00 9,8 6,1 - 37 20 54 29 SSE 1006,5 30 0,0
16.10.2018 06:00:00 10,3 6,0 - 26 14 - - SSE 1007,8 45 0,0
16.10.2018 05:00:00 10,0 5,8 - 26 14 - - SSE 1008,6 45 0,0
16.10.2018 04:00:00 10,1 6,2 - 22 12 - - SSE 1010,1 40 0,0
16.10.2018 03:00:00 10,1 6,4 - 18 10 - - S 1010,7 45 0,0
16.10.2018 02:00:00 10,5 7,7 - 22 12 - - S 1010,9 45 0,0
16.10.2018 01:00:00 11,0 8,4 - 18 10 - - SSE 1011,7 40 0,0
16.10.2018 00:00:00 11,0 8,5 - 16 9 - - SSE 1012,5 35 0,0
15.10.2018 23:00:00 11,0 8,5 - 13 7 - - SSE 1013,3 45 0,0
15.10.2018 22:00:00 11,0 8,7 - 11 6 - - SSE 1013,5 35 0,0
15.10.2018 21:00:00 10,3 6,8 - 5 3 - - SSE 1013,7 50 0,0
15.10.2018 20:00:00 10,1 7,2 - 8 4 - - SW 1014,0 40 0,0
15.10.2018 19:00:00 10,7 7,8 - 9 5 - - S 1013,8 40 0,0
15.10.2018 18:00:00 11,0 7,3 - 15 8 - - SSW 1013,4 30 0,0
15.10.2018 17:00:00 11,7 7,2 - 16 9 - - S 1013,2 35 0,0
15.10.2018 16:00:00 11,9 6,8 - 16 9 - - S 1013,2 30 0,0
15.10.2018 15:00:00 12,4 6,6 - 21 11 - - S 1013,0 40 0,0
15.10.2018 14:00:00 12,6 6,7 - 21 11 - - S 1013,0 30 0,0
15.10.2018 13:00:00 11,2 6,9 - 24 13 - - S 1013,1 40 0,0
15.10.2018 12:00:00 11,3 7,6 - 24 13 - - S 1013,3 35 0,0
15.10.2018 11:00:00 10,4 6,9 - 26 14 - - S 1012,9 35 0,0
15.10.2018 10:00:00 8,8 6,0 9,7 18 10 - - S 1012,8 45 0,0
15.10.2018 09:00:00 8,6 6,3 - 21 11 - - S 1012,4 35 0,0
15.10.2018 08:00:00 8,0 5,9 - 15 8 - - S 1011,8 45 0,0
15.10.2018 07:00:00 8,2 5,8 - 18 10 - - SSW 1011,5 50 0,0
15.10.2018 06:00:00 8,0 5,7 - 15 8 - - S 1011,2 50 0,0
15.10.2018 05:00:00 7,8 5,2 - 16 9 - - SSW 1011,0 40 0,0
15.10.2018 04:00:00 7,8 5,2 - 16 9 - - SSW 1011,2 45 0,0
15.10.2018 03:00:00 7,8 5,6 - 18 10 - - SSW 1011,4 50 0,0
15.10.2018 02:00:00 6,7 5,0 - 8 4 - - SSW 1011,1 45 0,0
15.10.2018 01:00:00 7,2 5,1 - 9 5 - - SW 1010,9 50 0,0
15.10.2018 00:00:00 7,8 5,2 - 9 5 - - S 1010,4 40 0,0
14.10.2018 23:00:00 8,4 5,8 - 9 5 - - S 1010,3 30 0,0
14.10.2018 22:00:00 8,4 6,2 - 13 7 - - S 1010,2 40 0,0
14.10.2018 21:00:00 8,4 5,7 - 9 5 - - S 1009,8 40 0,0
14.10.2018 20:00:00 8,6 5,7 - 13 7 - - S 1009,3 45 0,0
14.10.2018 19:00:00 8,2 5,6 - 11 6 - - S 1008,8 45 0,0
14.10.2018 18:00:00 9,2 5,9 - 13 7 - - S 1008,1 50 0,0
14.10.2018 17:00:00 10,5 5,0 - 15 8 - - S 1007,8 50 0,0
14.10.2018 16:00:00 11,1 5,3 - 15 8 - - S 1007,5 50 0,0
14.10.2018 15:00:00 11,3 6,7 - 13 7 - - SSW 1007,4 50 0,0
14.10.2018 14:00:00 9,9 6,6 - 13 7 - - SSW 1007,0 35 0,0
14.10.2018 13:00:00 9,1 6,3 - 11 6 - - SSW 1007,0 40 0,0
14.10.2018 12:00:00 8,5 6,0 - 9 5 - - SW 1006,8 35 0,0
14.10.2018 11:00:00 8,0 5,7 - 11 6 - - SSW 1006,6 35 0,0
14.10.2018 10:00:00 7,3 5,7 10,2 8 4 - - SW 1005,8 35 0,0
14.10.2018 09:00:00 6,8 5,8 - 8 4 - - SSW 1005,1 40 0,0
14.10.2018 08:00:00 6,7 6,3 - 11 6 - - WSW 1004,6 50 0,2
14.10.2018 07:00:00 7,0 6,9 - 11 6 - - WSW 1003,7 11 0,2
14.10.2018 06:00:00 7,2 7,0 - 16 9 - - W 1002,5 3,3 0,4
14.10.2018 05:00:00 7,3 7,0 - 21 11 - - W 1001,3 9 0,0
14.10.2018 04:00:00 7,4 7,0 - 28 15 46 25 WNW 999,6 11 0,0
14.10.2018 03:00:00 8,1 7,9 - 34 18 48 26 WNW 998,4 11 0,4
14.10.2018 02:00:00 8,3 8,2 - 31 17 46 25 NW 996,8 3,3 0,6
14.10.2018 01:00:00 8,6 8,5 - 35 19 46 25 NW 995,4 3,9 0,8
14.10.2018 00:00:00 9,3 9,3 - 29 16 - - NW 994,1 3,0 1,0
13.10.2018 23:00:00 9,5 9,5 - 29 16 - - NNW 994,1 3,6 1,6
13.10.2018 22:00:00 9,9 9,9 - 35 19 46 25 N 993,9 4,2 1,0
13.10.2018 21:00:00 10,1 10,1 - 31 17 - - NNE 995,2 4,1 2,2
13.10.2018 20:00:00 10,0 9,9 - 26 14 - - NNE 995,6 5 3,0
13.10.2018 19:00:00 9,7 9,5 - 24 13 - - NE 996,7 6 1,8
13.10.2018 18:00:00 9,9 9,5 - 21 11 - - NE 997,0 8 1,0
13.10.2018 17:00:00 10,0 9,6 - 15 8 - - NE 997,6 10 1,6
13.10.2018 16:00:00 10,2 9,5 - 11 6 - - ENE 998,7 10 1,4
13.10.2018 15:00:00 10,2 9,4 - 11 6 - - E 999,5 10 0,8
13.10.2018 14:00:00 10,9 9,8 - 8 4 - - SE 1000,8 5 1,0
13.10.2018 13:00:00 11,4 10,1 - 8 4 - - SE 1001,3 10 0,4
13.10.2018 12:00:00 11,6 8,9 - 9 5 - - SSE 1001,7 16 0,0
13.10.2018 11:00:00 11,6 9,3 - 11 6 - - SSE 1001,5 17 0,0
13.10.2018 10:00:00 11,2 8,6 10,4 9 5 - - S 1001,8 24 0,0
13.10.2018 09:00:00 11,1 8,3 - 21 11 - - S 1001,0 25 0,0
13.10.2018 08:00:00 10,3 7,8 - 4 2 - - W 1000,6 25 0,0
13.10.2018 07:00:00 11,0 8,4 - 24 13 - - S 999,4 27 0,0
13.10.2018 06:00:00 10,8 8,1 - 29 16 46 25 S 998,4 30 0,0
13.10.2018 05:00:00 11,0 7,8 - 26 14 52 28 S 997,5 29 0,0
13.10.2018 04:00:00 11,6 6,3 - 39 21 52 28 SSW 995,7 35 0,0
13.10.2018 03:00:00 11,7 7,2 - 35 19 70 38 SSW 994,7 30 0,0
13.10.2018 02:00:00 12,3 8,5 - 44 24 68 37 SSW 993,0 17 0,0
13.10.2018 01:00:00 12,7 7,8 - 48 26 74 40 S 991,3 18 0,0
13.10.2018 00:00:00 12,9 7,9 - 50 27 68 37 S 989,8 18 0,0
12.10.2018 23:00:00 12,5 8,0 - 44 24 67 36 S 988,6 19 0,0
12.10.2018 22:00:00 12,9 9,2 - 39 21 61 33 S 987,9 17 0,0
12.10.2018 21:00:00 12,8 10,2 - 35 19 55 30 SSE 987,1 17 0,0
12.10.2018 20:00:00 12,3 10,9 - 34 18 50 27 SSE 986,2 16 0,0
12.10.2018 19:00:00 12,4 11,8 - 29 16 - - SSE 986,3 11 0,8
12.10.2018 18:00:00 12,4 12,0 - 24 13 48 26 SSE 987,0 4,6 1,6
12.10.2018 17:00:00 12,4 11,3 - 29 16 63 34 SSE 987,1 5 1,2
12.10.2018 16:00:00 14,7 9,1 - 37 20 59 32 SSE 988,1 10 0,0
12.10.2018 15:00:00 14,6 8,5 - 31 17 48 26 SSE 988,6 10 0,0
12.10.2018 14:00:00 13,5 10,2 - 22 12 54 29 SSE 989,9 10 0,0
12.10.2018 13:00:00 13,8 9,7 - 31 17 59 32 SSE 989,5 12 0,0
12.10.2018 12:00:00 13,1 10,7 - 41 22 68 37 SSE 988,5 11 0,4
12.10.2018 11:00:00 12,8 10,5 - 42 23 74 40 SSE 987,8 9 0,0
12.10.2018 10:00:00 12,2 8,4 10,4 48 26 78 42 SSE 988,9 10 0,2
12.10.2018 09:00:00 11,1 10,2 - 35 19 55 30 SE 990,6 8 1,2
12.10.2018 08:00:00 11,0 10,1 - 37 20 57 31 SE 992,1 11 0,0
12.10.2018 07:00:00 10,9 9,6 - 24 13 - - SE 993,6 22 0,0
12.10.2018 06:00:00 11,2 10,4 - 18 10 - - ESE 993,7 15 0,0
12.10.2018 05:00:00 10,3 9,4 - 9 5 - - ESE 995,4 13 0,0
12.10.2018 04:00:00 10,3 9,9 - 9 5 - - S 997,7 9 0,0
12.10.2018 03:00:00 10,4 10,1 - 13 7 - - S 998,1 8 0,0
12.10.2018 02:00:00 10,5 10,1 - 8 4 - - S 998,5 7 0,0
12.10.2018 01:00:00 10,9 10,5 - 8 4 74 40 S 998,2 12 0,0
12.10.2018 00:00:00 11,9 11,3 - 11 6 - - SSE 998,2 7 0,8
11.10.2018 23:00:00 12,9 12,1 - 18 10 46 25 S 998,2 6 0,6
11.10.2018 22:00:00 13,2 12,0 - 28 15 50 27 SE 997,3 8 0,4
11.10.2018 21:00:00 13,1 11,9 - 34 18 55 30 SE 996,8 7 0,4
11.10.2018 20:00:00 13,0 12,1 - 31 17 52 28 SE 996,1 6 0,0
11.10.2018 19:00:00 12,7 12,1 - 31 17 48 26 SE 995,8 6 0,0

tt = Température de l'air
td = dewpoint
tt -20cm = Température de l'air -20cm
ff = Vitesse du vent
fx = gusts
dd = Direction du vent
ppp = reduced air pressure
vv = visibility
rr = Quantités de précipitations

stations d'obs. à proximité